Location: Oshawa
(43.9000°N, 78.8670°W)
Time: 23:54:00
(UTC-05:00)

S-56A Canister/Altair - All Passes

Search period start: 09 December 2016 00:00
Search period end: 19 December 2016 00:00
Orbit: 640 x 2495 km, 38.9° (Epoch: 08 December)

Date Brightness Start Highest point End Pass type
(mag) Time Alt. Az. Time Alt. Az. Time Alt. Az.
09 Dec - 01:41:29 10° WSW 01:44:49 11° SW 01:48:18 10° SW night (unlit)
09 Dec - 16:48:50 10° SSW 16:54:05 34° SSE 17:01:29 10° E daylight
09 Dec - 18:50:49 10° WSW 18:57:42 63° S 19:08:16 10° E visible
09 Dec - 20:53:59 10° W 21:02:27 59° SSW 21:14:56 10° ESE visible
09 Dec - 22:58:12 10° W 23:07:29 36° SSW 23:19:34 10° SSE visible
10 Dec - 01:06:58 10° WSW 01:12:02 13° SW 01:17:30 10° SSW night (unlit)
10 Dec - 16:17:04 10° SSW 16:21:50 29° SSE 16:28:16 10° E daylight
10 Dec - 18:18:45 10° WSW 18:25:10 60° S 18:34:57 10° E visible
10 Dec - 20:21:46 10° W 20:29:42 60° S 20:41:35 10° ESE visible
10 Dec - 22:25:43 10° W 22:34:38 37° SSW 22:46:35 10° SSE visible
11 Dec - 00:33:15 10° WSW 00:39:14 15° SW 00:45:54 10° SSW night (unlit)
11 Dec - 15:45:23 10° SSW 15:49:38 24° SE 15:55:04 10° E daylight
11 Dec - 17:46:44 10° WSW 17:52:42 56° SSE 18:01:41 10° E visible
11 Dec - 19:49:36 10° W 19:57:00 60° S 20:08:15 10° ESE visible
11 Dec - 21:53:19 10° W 22:01:48 39° SSW 22:13:32 10° SE visible
11 Dec - 23:59:57 10° WSW 00:06:27 17° SW 00:13:55 10° S night (unlit)
12 Dec - 15:13:49 10° S 15:17:28 20° SE 15:21:54 10° E daylight
12 Dec - 17:14:45 10° WSW 17:20:19 52° SSE 17:28:30 10° E visible
12 Dec - 19:17:29 10° W 19:24:23 60° S 19:34:56 10° ESE visible
12 Dec - 21:20:59 10° W 21:29:02 41° SSW 21:40:25 10° SE visible
12 Dec - 23:26:55 10° WSW 23:33:40 18° SW 23:41:40 10° S night (unlit)
13 Dec - 14:42:24 10° S 14:45:19 16° SE 14:48:40 10° ESE daylight
13 Dec - 16:42:48 10° SW 16:47:59 47° SSE 16:55:24 10° E daylight
13 Dec - 18:45:24 10° W 18:51:50 60° S 19:01:40 10° ESE visible
13 Dec - 20:48:43 10° W 20:56:19 42° SSW 21:07:17 10° SE visible
13 Dec - 22:54:05 10° WSW 23:00:55 20° SW 23:09:14 10° S visible
14 Dec - 14:11:19 10° SSE 14:13:11 12° SE 14:15:11 10° ESE daylight
14 Dec - 16:10:52 10° SW 16:15:42 42° SSE 16:22:23 10° E daylight
14 Dec - 18:13:20 10° W 18:19:21 60° S 18:28:27 10° ESE visible
14 Dec - 20:16:31 10° W 20:23:40 44° SSW 20:34:08 10° SE visible
14 Dec - 22:21:24 10° W 22:28:11 21° SW 22:36:40 10° S visible
15 Dec - 15:38:58 10° SW 15:43:28 37° SSE 15:49:26 10° E daylight
15 Dec - 17:41:17 10° WSW 17:46:55 58° S 17:55:18 10° ESE visible
15 Dec - 19:44:21 10° W 19:51:04 45° SSW 20:00:59 10° SE visible
15 Dec - 21:48:52 10° W 21:55:29 23° SSW 22:04:00 10° SSE visible
16 Dec - 15:07:04 10° SW 15:11:16 32° SSE 15:16:34 10° E daylight
16 Dec - 17:09:16 10° WSW 17:14:33 56° S 17:22:14 10° E visible
16 Dec - 19:12:14 10° W 19:18:32 46° SSW 19:27:51 10° SE visible
16 Dec - 21:16:25 10° W 21:22:50 24° SSW 21:31:15 10° SSE visible
17 Dec - 14:35:13 10° SSW 14:39:06 27° SSE 14:43:45 10° E daylight
17 Dec - 16:37:14 10° WSW 16:42:13 54° S 16:49:15 10° E daylight
17 Dec - 18:40:08 10° W 18:46:02 47° SSW 18:54:46 10° SE visible
17 Dec - 20:44:04 10° W 20:50:14 25° SSW 20:58:27 10° SSE visible
18 Dec - 14:03:21 10° SSW 14:06:57 23° SSE 14:11:00 10° E daylight
18 Dec - 16:05:13 10° WSW 16:09:57 51° S 16:16:21 10° E daylight
18 Dec - 18:08:03 10° W 18:13:36 48° SSW 18:21:44 10° ESE visible
18 Dec - 20:11:46 10° W 20:17:40 26° SSW 20:25:38 10° SSE visible
